Location: B�hl
(48.6968°N, 8.1352°E)
Time: 02:32:16
(UTC+00:00)

BREEZE-M DEB (TANK) - Pass Details

Date: 08 March 2021
Orbit: 334 x 11905 km, 49.7° (Epoch: 16 April)

Event Time Altitude Azimuth Distance (km) Brightness Sun altitude
Rises 18:44:24 0° 225° (SW) 2,170 7.0 -14.3°
Reaches altitude 10° 18:46:17 10° 212° (SSW) 1,264 5.6 -14.6°
Maximum altitude 18:48:26 30° 146° (SE) 691 3.6 -15.0°
Enters shadow 18:48:33 30° 139° (SE) 702 3.5 -15.0°
